Temperature
20 20 20 20 19 19 19 19 19 19 19 19 19 19 19 19 19 19 19 19 19 19 19 19 19 19 19 19 19 19 18 18 18 18 18 18 18 18 18 18 18 17 18
20 19 20 19 19 19 19 19 19 19 19 19 19 19 19 19 19 19 19 19 19 19 19 19 19 19 19 19 18 18 18 18 18 18 18 18 18 18 18 18 18 17 18
20 19 19 19 19 19 19 19 19 19 19 19 19 19 19 19 19 19 19 19 19 19 19 19 19 19 19 18 18 18 18 18 18 18 18 17 18 18 18 18 18 18 18
20 19 19 19 19 19 19 19 19 19 19 19 19 19 19 19 19 19 18 19 19 19 18 19 19 18 18 18 18 18 18 18 18 18 18 17 17 18 18 18 17 17 17
20 19 19 19 19 19 19 19 19 19 19 19 19 19 19 19 19 19 18 18 19 19 19 19 18 18 18 18 18 18 18 18 18 18 17 17 17 18 18 17 17 17 17
20 19 19 19 19 19 19 19 19 19 19 19 19 19 19 19 19 19 18 18 19 19 19 18 18 18 18 18 18 18 18 18 18 18 17 17 17 18 18 17 17 17 17
20 20 19 20 19 19 19 19 19 19 19 19 19 19 19 19 18 18 18 18 18 18 18 18 18 18 18 18 18 18 18 18 18 17 17 17 17 18 18 17 17 17 17
20 20 19 20 19 19 19 19 19 19 19 19 19 19 19 19 19 18 18 18 18 18 18 18 18 18 18 18 18 18 18 17 17 17 17 17 18 18 17 17 17 17 17
20 20 20 20 19 19 19 19 19 19 19 19 19 19 19 19 19 18 18 18 18 18 18 18 18 18 18 18 18 18 18 18 18 18 17 17 18 18 18 17 17 17 17
20 20 20 20 19 19 19 19 19 19 19 19 19 19 19 19 19 18 18 18 18 18 18 18 18 18 18 18 18 18 18 18 18 18 17 17 18 18 18 17 17 17 17
20 20 20 20 20 19 19 19 19 19 19 19 19 19 19 18 18 18 18 18 18 18 18 18 18 18 18 18 18 18 18 18 18 18 17 18 18 18 18 17 17 17 17
20 20 20 20 20 20 19 19 19 19 19 19 18 18 18 18 18 18 18 19 19 19 18 18 18 18 18 18 18 18 18 18 18 18 17 18 18 17 17 17 17 17 17
20 20 20 20 19 20 19 19 19 19 19 19 18 19 19 18 18 18 18 18 18 18 18 18 18 18 18 18 18 18 18 18 18 18 17 18 18 17 17 17 17 17 17
20 20 20 20 20 19 19 19 19 19 19 19 18 18 18 18 18 18 18 18 18 18 18 18 18 18 18 18 18 18 18 18 18 18 18 18 18 17 17 17 17 17 17
20 20 20 20 19 19 19 19 19 19 19 19 19 18 18 18 18 18 18 18 19 19 19 18 18 18 18 18 18 18 18 18 18 18 18 18 18 18 18 17 17 17 17
20 20 20 20 19 19 19 19 19 19 19 19 19 18 18 18 18 18 18 18 19 19 18 18 18 18 18 18 18 18 18 18 18 18 18 18 18 18 18 17 17 17 17
20 20 20 19 19 19 19 19 19 19 19 19 19 18 18 18 18 18 18 18 18 18 18 18 18 18 18 18 18 18 18 18 18 17 17 17 17 17 17 17 17 17 17
20 20 20 20 19 19 19 19 19 19 19 19 19 18 18 18 18 18 18 19 18 18 18 18 18 18 18 18 18 18 18 18 18 18 18 17 17 17 17 17 17 17 17
20 20 20 19 19 19 19 19 19 19 19 19 19 18 18 18 18 18 18 18 18 18 18 18 18 18 18 18 18 18 18 18 18 18 18 18 17 17 17 17 17 17 17
20 20 20 20 19 19 19 19 19 19 19 19 18 18 18 18 18 18 19 18 19 19 18 18 18 18 18 18 19 18 18 18 18 18 18 18 18 18 18 17 17 17 17
20 20 20 20 20 20 19 19 19 19 19 19 19 18 18 18 18 18 19 18 18 18 18 18 18 18 18 18 18 19 19 18 18 18 18 18 18 18 18 17 17 17 17
21 20 20 20 20 20 19 19 19 19 19 19 19 18 18 18 18 18 18 19 18 18 18 18 18 18 19 18 18 19 19 19 18 18 18 18 18 18 18 18 17 17 17
21 20 20 20 20 20 19 19 19 19 19 19 19 19 18 18 18 18 18 18 18 18 18 18 18 18 18 18 18 19 20 20 19 19 18 18 18 18 18 18 17 17 17
21 21 21 20 20 20 20 19 19 19 19 19 19 19 18 18 18 18 18 18 18 18 18 18 18 18 18 19 18 18 18 19 19 19 19 18 18 18 18 18 17 17 17
22 21 21 21 20 20 20 20 19 19 19 19 19 19 18 18 18 18 18 18 18 18 18 18 18 18 18 18 18 18 18 18 18 19 19 18 18 18 18 17 17 17 17
22 21 21 21 21 20 20 19 19 19 19 19 19 19 19 19 18 18 18 18 18 18 18 18 18 18 18 18 18 18 18 18 18 18 18 18 18 18 17 17 17 17 17
Wind_Speed
5 7 10 7 7 7 7 7 6 6 7 7 7 7 7 8 9 9 11 11 12 13 14 14 14 14 14 15 15 15 15 16 16 15 15 15 14 13 12 11 10 10 12
5 7 10 8 8 8 7 7 7 7 7 7 7 7 8 9 10 10 11 11 12 12 13 14 14 14 14 15 15 15 15 15 15 15 15 15 13 12 11 9 6 9 11
6 7 8 9 8 8 8 8 8 8 8 8 8 9 10 10 10 10 11 12 12 12 12 14 15 15 15 15 15 15 14 14 14 14 14 12 12 11 10 9 9 10 11
7 7 9 9 8 8 8 9 9 9 8 9 9 10 10 11 11 11 12 12 11 12 14 14 15 15 14 14 14 14 14 14 14 13 10 10 11 11 10 10 10 10 11
7 8 10 8 8 8 8 9 9 9 9 9 10 10 10 11 12 12 13 13 13 15 15 14 15 15 15 14 13 14 14 14 13 11 9 9 10 11 10 10 10 10 10
7 7 9 8 8 8 9 9 10 10 10 10 10 10 10 11 12 13 14 14 15 15 15 14 14 14 14 13 13 14 14 13 11 9 8 8 9 11 10 10 10 10 10
7 7 9 8 7 8 9 9 10 10 10 10 10 10 10 11 12 13 14 14 14 15 14 14 13 14 14 13 12 13 13 11 8 9 7 7 9 11 10 10 9 9 9
6 7 9 8 7 8 9 9 10 10 11 10 10 10 10 11 12 13 13 14 14 14 14 13 13 13 13 12 12 11 11 9 9 8 7 8 10 11 10 9 8 8 8
6 6 7 8 8 8 8 9 9 10 10 10 10 11 11 12 13 13 13 13 13 14 14 14 13 13 13 12 11 11 10 7 7 7 7 7 10 9 9 8 8 8 8
6 6 6 6 7 7 9 9 9 10 10 10 11 11 11 13 14 14 13 14 13 13 13 13 12 12 11 11 10 9 8 8 6 7 6 8 9 8 8 8 8 7 8
6 6 6 6 6 6 7 8 8 9 8 8 9 9 8 9 11 11 14 13 12 12 12 12 11 11 10 10 9 8 7 4 6 5 6 10 8 8 7 7 7 8 8
6 6 6 6 5 5 6 6 5 6 7 7 7 7 8 8 8 10 13 12 11 11 10 10 9 9 7 7 8 8 4 4 4 5 8 9 7 7 7 7 8 8 8
6 6 6 6 5 5 4 4 4 5 5 6 7 7 7 6 6 6 6 8 9 8 7 8 7 5 5 4 3 4 4 3 3 4 8 9 7 7 6 7 8 8 8
6 6 5 5 5 4 4 4 4 4 4 5 6 5 5 4 4 5 4 5 4 5 5 4 4 5 4 3 3 3 4 3 3 3 7 9 7 7 6 6 7 8 8
6 5 5 4 4 4 3 2 4 4 4 5 5 5 5 4 4 4 4 3 4 4 4 4 3 4 3 3 3 3 3 3 3 3 5 8 7 7 6 6 7 8 8
5 5 5 4 4 3 3 2 3 3 3 4 4 5 4 4 4 3 3 3 3 3 3 3 3 3 2 2 3 2 1 2 3 2 4 7 8 7 7 7 7 8 8
5 5 4 4 4 3 3 2 3 3 3 3 4 4 4 4 3 2 2 2 3 3 3 2 2 2 2 2 2 2 2 2 2 2 3 4 6 8 8 8 8 8 8
5 5 4 3 4 4 3 2 2 3 3 3 3 3 3 3 2 1 2 2 2 2 2 2 1 2 2 2 2 1 2 2 2 3 3 3 3 4 7 9 8 8 8
5 5 5 3 4 4 4 3 2 2 2 2 2 2 2 2 2 1 1 2 0 1 1 0 2 1 1 1 2 2 2 2 2 3 2 3 3 3 3 7 9 8 10
5 5 5 4 4 4 4 3 2 2 2 2 2 2 1 1 1 0 1 0 0 0 0 1 1 1 1 1 0 1 1 1 2 2 2 2 2 3 3 3 5 7 9
6 6 5 5 4 4 3 3 3 3 2 2 1 2 1 1 1 1 1 0 1 0 1 1 1 2 1 1 1 1 2 2 2 2 2 1 2 2 2 3 3 3 4
7 7 6 6 5 5 4 2 2 2 2 2 1 1 1 1 0 1 1 1 1 0 1 1 1 1 1 1 1 1 1 3 2 2 2 2 2 2 2 3 3 3 4
8 8 6 6 6 5 5 4 3 3 2 2 2 1 1 0 1 1 1 2 2 2 0 1 1 1 1 1 1 2 1 0 1 2 1 1 1 1 2 1 2 2 3
9 9 8 7 7 6 6 4 4 2 2 2 1 1 1 0 0 0 1 1 2 1 1 1 0 1 2 1 1 1 2 1 1 1 1 1 1 1 2 2 2 2 3
9 9 8 8 7 7 6 5 4 3 2 2 2 2 1 1 0 0 0 1 1 1 2 2 1 1 1 1 1 0 1 2 3 2 2 1 1 1 1 2 2 3 3
8 8 8 8 7 7 7 6 5 4 3 2 1 1 1 1 1 1 1 0 0 1 1 1 1 0 1 2 2 1 1 1 1 1 3 3 3 2 2 2 2 2 2
Wind_Direction
50 62 76 67 62 60 62 66 71 80 85 87 97 106 112 117 118 122 127 130 139 142 146 146 144 143 142 138 137 137 139 138 136 135 134 133 129 128 132 139 146 134 130
64 72 80 70 64 60 61 63 67 75 81 85 92 100 108 112 116 120 126 128 131 138 146 143 137 138 137 134 135 135 135 138 138 139 141 139 134 133 138 146 144 127 138
72 79 83 70 64 61 61 60 64 68 73 78 86 95 102 106 109 112 120 125 126 131 134 138 135 134 133 135 136 136 136 137 141 146 154 144 137 139 142 146 140 138 145
76 79 78 74 62 61 61 62 63 67 71 79 87 95 100 102 103 103 111 114 117 129 131 129 132 131 130 131 134 136 137 139 146 156 151 139 138 135 143 149 148 148 151
81 82 82 76 65 63 62 64 64 65 68 76 85 91 98 103 104 103 104 105 106 121 130 130 130 128 127 127 130 134 136 139 150 159 138 138 133 136 145 151 154 151 149
90 87 86 79 66 63 63 62 62 65 69 73 81 89 95 103 107 107 106 105 105 111 118 122 126 125 125 124 126 131 133 142 156 136 136 138 135 142 150 154 153 153 152
92 89 88 86 76 69 66 60 61 68 70 73 79 87 93 101 107 110 109 107 107 108 111 114 117 126 124 123 126 132 139 150 140 128 137 134 132 145 154 157 157 156 155
99 98 97 101 89 78 72 66 65 70 72 74 80 85 92 99 106 109 108 107 108 111 113 114 114 114 120 122 122 129 141 155 138 135 135 128 129 146 155 160 161 158 157
100 99 98 106 106 102 85 72 68 71 75 77 81 86 93 101 105 108 108 108 111 114 115 115 114 114 116 116 119 126 140 165 146 135 133 129 135 149 159 161 161 161 163
93 93 97 96 98 103 102 91 81 77 79 83 84 89 97 109 113 115 113 107 109 113 115 115 116 117 118 121 126 133 151 180 143 134 130 123 135 149 156 161 165 166 164
98 98 99 96 95 95 92 97 101 97 92 100 97 99 103 98 101 109 101 107 108 109 113 115 118 124 130 133 135 149 174 156 131 124 121 122 145 155 154 154 158 159 160
113 107 101 95 92 94 93 97 97 91 89 86 83 87 89 89 93 99 109 113 115 119 123 124 134 154 164 137 147 180 159 144 132 128 121 132 151 160 166 166 165 165 168
119 110 109 102 101 97 95 94 88 84 86 88 83 87 88 88 99 99 110 123 129 137 126 136 152 128 117 114 139 144 139 141 138 134 131 145 161 171 173 177 177 178 180
115 111 105 104 97 85 82 89 95 92 86 82 83 77 83 85 83 85 93 97 109 103 102 109 113 107 111 124 126 127 135 143 145 135 135 154 174 185 193 195 192 191 192
122 119 114 113 104 100 87 70 82 78 76 83 80 77 76 84 80 87 87 82 86 94 108 109 103 108 115 125 131 132 129 125 137 146 138 161 180 190 198 205 206 202 199
137 134 127 128 124 121 109 89 83 94 93 81 83 79 75 82 79 84 95 88 88 91 89 98 108 118 107 107 122 129 134 118 129 160 151 158 173 186 194 203 210 210 209
148 144 140 137 130 129 118 114 112 114 102 89 86 88 84 88 88 90 91 98 88 100 108 105 108 112 139 131 120 131 138 141 143 164 176 169 171 183 193 205 214 218 225
151 149 154 145 132 133 122 113 110 101 99 97 97 94 90 82 88 90 82 86 101 116 114 121 108 113 114 124 131 136 139 156 177 188 184 182 192 192 191 198 209 219 229
154 157 159 152 144 140 135 135 123 108 103 113 108 99 96 88 86 92 67 62 136 111 111 118 102 111 129 132 157 160 173 182 182 193 195 191 190 207 208 187 204 220 229
156 159 164 162 155 152 146 140 132 125 130 116 100 88 72 96 84 67 130 18 324 81 120 104 165 147 175 193 150 117 184 183 193 180 203 194 195 206 212 212 209 215 222
165 164 170 169 160 166 163 167 156 150 149 139 119 77 49 31 86 315 347 356 295 343 284 215 201 174 182 161 174 169 161 161 154 174 193 206 195 210 214 219 236 247 211
174 174 175 176 171 176 164 173 162 143 152 137 98 86 56 34 272 204 305 285 327 261 246 244 228 243 173 183 243 234 190 161 160 150 175 187 216 216 221 223 233 246 265
182 182 180 179 175 179 170 169 160 158 172 154 143 136 90 342 322 331 304 317 308 293 90 255 240 242 249 200 260 294 288 278 116 131 136 171 217 251 249 246 242 239 243
185 181 180 178 179 179 180 178 174 171 163 145 151 111 126 134 316 312 325 329 328 357 42 257 140 255 260 240 162 254 312 336 290 234 186 155 179 234 269 280 277 257 244
185 182 177 176 177 177 180 177 184 185 183 170 156 127 223 164 205 321 0 350 334 8 34 22 25 323 292 298 299 264 205 220 247 262 273 287 275 257 251 269 284 284 276
185 185 178 174 177 178 181 182 187 194 198 184 188 174 212 192 194 176 183 326 318 14 52 27 356 354 335 331 316 310 279 267 264 258 259 263 278 286 276 279 270 262 262
Height
1505 1503 1500 1499 1497 1496 1495 1494 1493 1492 1491 1490 1489 1488 1489 1489 1490 1492 1493 1494 1496 1498 1500 1503 1505 1508 1511 1513 1516 1518 1521 1523 1526 1528 1530 1533 1535 1536 1538 1540 1542 1543 1544
1506 1505 1502 1501 1499 1498 1497 1496 1494 1493 1492 1491 1489 1489 1489 1490 1492 1493 1494 1495 1497 1499 1501 1503 1506 1509 1512 1514 1516 1519 1522 1524 1527 1529 1531 1534 1536 1537 1539 1541 1542 1544 1544
1507 1506 1504 1503 1501 1500 1499 1497 1496 1495 1494 1492 1491 1490 1490 1492 1493 1494 1495 1497 1498 1499 1500 1503 1507 1510 1513 1515 1517 1520 1523 1525 1528 1530 1533 1535 1537 1538 1540 1541 1543 1544 1545
1509 1508 1507 1505 1503 1502 1501 1499 1498 1497 1495 1494 1493 1493 1493 1494 1495 1496 1497 1498 1497 1497 1501 1506 1509 1512 1514 1516 1519 1521 1524 1526 1529 1531 1535 1537 1538 1539 1540 1542 1543 1545 1545
1511 1510 1508 1507 1506 1504 1503 1501 1500 1498 1497 1496 1495 1495 1496 1497 1498 1499 1500 1500 1499 1499 1504 1509 1511 1513 1515 1518 1520 1522 1525 1527 1530 1533 1536 1537 1539 1539 1541 1542 1544 1545 1546
1513 1513 1511 1509 1508 1507 1505 1503 1502 1500 1499 1498 1497 1497 1498 1499 1500 1501 1503 1504 1504 1505 1509 1511 1514 1516 1518 1520 1522 1524 1526 1529 1532 1535 1537 1538 1539 1540 1541 1543 1544 1545 1546
1515 1515 1513 1511 1510 1509 1507 1505 1504 1503 1501 1500 1500 1499 1500 1500 1502 1504 1506 1507 1509 1510 1512 1514 1516 1519 1521 1523 1524 1527 1529 1531 1534 1536 1537 1539 1539 1540 1542 1543 1544 1545 1546
1516 1516 1515 1513 1513 1512 1510 1508 1507 1505 1504 1503 1502 1501 1501 1502 1503 1506 1508 1511 1512 1514 1516 1518 1520 1522 1524 1526 1527 1529 1530 1532 1536 1537 1539 1539 1540 1541 1542 1543 1544 1546 1547
1518 1518 1518 1517 1515 1514 1513 1511 1510 1508 1507 1506 1505 1504 1503 1503 1506 1509 1512 1514 1516 1518 1520 1521 1523 1525 1527 1528 1530 1531 1533 1535 1538 1539 1540 1540 1540 1541 1542 1544 1545 1546 1547
1520 1520 1520 1520 1519 1518 1517 1515 1513 1512 1511 1510 1509 1509 1508 1508 1510 1513 1516 1518 1519 1521 1523 1525 1526 1528 1529 1531 1533 1534 1536 1537 1540 1541 1541 1541 1541 1542 1543 1544 1545 1546 1546
1521 1521 1522 1522 1521 1521 1520 1518 1517 1516 1515 1515 1515 1514 1514 1516 1517 1519 1521 1522 1523 1525 1526 1528 1529 1531 1532 1534 1535 1536 1537 1540 1541 1542 1542 1542 1542 1543 1543 1544 1545 1546 1547
1522 1523 1523 1524 1523 1523 1523 1522 1521 1521 1520 1519 1519 1519 1520 1520 1522 1524 1524 1525 1527 1528 1529 1530 1532 1533 1535 1537 1537 1538 1540 1541 1542 1543 1542 1542 1543 1543 1544 1544 1545 1546 1547
1524 1525 1525 1525 1525 1525 1525 1525 1524 1524 1523 1523 1523 1523 1524 1524 1526 1527 1528 1529 1530 1531 1532 1533 1535 1536 1537 1538 1539 1540 1541 1542 1543 1543 1543 1542 1543 1543 1544 1545 1545 1546 1547
1525 1526 1526 1527 1527 1526 1527 1527 1527 1527 1527 1527 1526 1526 1527 1528 1528 1529 1530 1532 1532 1533 1534 1535 1536 1537 1537 1538 1539 1540 1541 1542 1543 1543 1543 1543 1543 1543 1544 1544 1545 1546 1547
1527 1527 1528 1528 1528 1527 1527 1528 1529 1529 1530 1530 1529 1529 1529 1530 1531 1531 1532 1532 1534 1535 1535 1536 1537 1538 1538 1539 1540 1541 1541 1542 1542 1543 1542 1542 1543 1543 1543 1544 1545 1545 1546
1527 1528 1529 1529 1529 1529 1529 1529 1530 1531 1531 1532 1532 1532 1532 1533 1533 1533 1534 1534 1535 1536 1536 1537 1537 1538 1539 1539 1540 1540 1541 1542 1541 1542 1543 1542 1542 1543 1543 1543 1544 1545 1545
1528 1529 1529 1530 1530 1530 1531 1532 1533 1534 1534 1534 1534 1534 1534 1534 1534 1535 1536 1536 1536 1536 1537 1537 1538 1538 1539 1540 1540 1540 1541 1541 1541 1541 1542 1543 1543 1542 1543 1543 1543 1544 1544
1529 1529 1530 1531 1531 1531 1532 1532 1534 1535 1536 1536 1536 1536 1536 1536 1536 1536 1537 1537 1537 1537 1538 1538 1538 1539 1539 1539 1540 1540 1540 1540 1540 1541 1542 1542 1542 1543 1542 1542 1542 1543 1543
1529 1529 1530 1531 1532 1532 1533 1534 1535 1535 1536 1537 1537 1538 1537 1537 1537 1537 1537 1537 1537 1538 1537 1538 1538 1538 1538 1538 1539 1539 1540 1540 1540 1541 1541 1542 1542 1542 1542 1541 1541 1541 1541
1529 1529 1530 1531 1532 1533 1534 1535 1536 1536 1537 1538 1538 1538 1538 1538 1537 1538 1538 1537 1537 1537 1537 1536 1536 1536 1537 1538 1538 1539 1539 1539 1540 1540 1540 1541 1541 1541 1541 1541 1541 1540 1540
1528 1529 1530 1531 1532 1533 1534 1535 1536 1537 1538 1538 1539 1538 1538 1538 1537 1538 1538 1537 1537 1537 1536 1536 1536 1536 1537 1537 1538 1538 1538 1539 1539 1539 1539 1540 1540 1539 1539 1539 1539 1539 1539
1528 1529 1529 1531 1532 1533 1534 1535 1536 1537 1538 1539 1539 1538 1538 1538 1538 1538 1537 1537 1537 1536 1535 1535 1535 1536 1536 1537 1537 1538 1538 1539 1538 1538 1538 1538 1538 1538 1538 1538 1537 1537 1537
1527 1528 1529 1530 1531 1533 1534 1535 1536 1537 1538 1539 1538 1538 1538 1538 1537 1537 1537 1536 1536 1536 1535 1534 1534 1535 1536 1536 1536 1537 1537 1536 1537 1538 1537 1537 1537 1537 1537 1536 1536 1535 1535
1525 1527 1528 1529 1531 1532 1533 1535 1536 1537 1538 1538 1538 1538 1538 1537 1537 1537 1536 1536 1535 1535 1534 1534 1534 1535 1535 1536 1536 1535 1536 1536 1537 1537 1537 1536 1536 1535 1535 1535 1534 1534 1533
1524 1526 1527 1528 1530 1531 1532 1533 1535 1536 1537 1538 1538 1537 1537 1537 1536 1536 1536 1535 1535 1535 1534 1534 1534 1534 1535 1535 1535 1535 1535 1535 1536 1536 1535 1536 1535 1534 1533 1533 1532 1531 1531
1523 1525 1526 1527 1528 1530 1531 1532 1533 1535 1536 1536 1537 1537 1537 1537 1536 1536 1536 1535 1535 1535 1534 1533 1533 1534 1534 1533 1534 1534 1535 1535 1535 1534 1534 1534 1533 1533 1532 1531 1530 1529 1529